RH
4 4 5 5 7 9 10 10 11 11 11 13 12 9 6 7 9 9 11 12 13 16 15 16 20 25 31 29 29 31 33 34 38 43 48 50 52 55 54 51 52 53 54 52 50 48 48 49 47 45 43 41 40 39 38 36 36 37 39 40 40 41 40 40 40 39 39 38 37 36 37 36 35 34 33 34 33 31 35 37 35 35 34 30 31 34 38 40 39 38 37 32 27 27 25 23 21
4 5 4 7 8 9 11 8 11 13 14 15 11 9 8 9 11 10 12 13 15 19 17 16 18 23 30 30 27 31 35 38 37 40 46 50 54 59 56 52 52 53 55 56 53 49 49 50 48 45 43 41 40 40 39 38 39 39 39 40 42 43 43 43 42 41 39 38 37 36 36 38 37 36 33 32 31 29 30 35 35 36 38 32 31 35 40 41 39 41 43 40 34 31 28 24 22
4 6 7 9 9 9 11 10 12 13 14 14 10 10 12 12 12 13 14 15 17 19 19 18 22 24 25 26 26 31 34 37 40 43 47 47 51 57 56 54 53 54 55 57 55 50 50 51 48 45 43 41 41 41 40 39 39 40 38 39 42 44 43 43 42 40 39 39 37 35 36 38 38 37 35 33 30 27 26 30 32 36 40 34 31 35 38 38 39 43 44 43 39 36 34 26 22
5 7 9 10 9 8 11 12 12 14 15 13 11 11 12 17 17 17 17 17 18 19 21 22 28 28 24 25 28 32 33 35 38 44 48 45 47 54 54 54 53 55 56 58 56 51 51 51 48 45 43 41 42 41 40 39 39 39 38 37 39 41 42 41 40 40 39 39 37 36 37 38 39 38 38 36 33 27 21 22 27 30 34 32 29 30 34 37 41 44 43 42 38 35 33 27 24
7 8 9 9 10 9 11 13 12 13 14 10 14 12 11 24 27 23 20 19 19 20 22 25 31 30 29 30 31 33 34 36 37 43 50 46 46 52 55 54 53 54 56 57 55 53 53 52 49 46 44 42 42 40 40 40 40 39 38 36 37 38 38 38 37 38 39 38 38 38 39 39 40 39 39 37 33 29 21 17 22 27 29 31 31 29 33 38 43 44 42 41 37 34 32 28 26
9 9 9 9 11 10 12 15 14 13 11 8 13 12 13 25 31 27 26 24 22 21 21 27 31 30 34 36 35 36 35 39 41 44 48 49 50 52 56 54 53 56 56 55 54 55 55 53 49 46 43 42 41 40 41 41 41 40 38 36 35 35 34 34 35 36 37 37 38 39 40 40 40 40 39 38 35 32 26 19 20 27 30 33 36 34 33 36 38 40 41 40 37 35 34 32 28
10 9 9 9 11 11 13 16 14 13 9 8 13 15 17 23 27 27 27 26 27 25 24 32 32 31 37 37 39 41 39 42 44 45 47 51 55 56 59 57 56 60 59 57 58 57 55 53 49 46 43 41 41 40 41 42 42 41 39 37 35 33 33 33 34 35 35 36 37 38 38 39 40 41 40 40 39 37 31 23 20 25 29 32 36 36 33 32 32 35 38 38 38 35 34 32 28
9 10 9 10 12 11 13 13 11 11 8 8 13 16 16 19 21 22 23 23 27 27 28 36 31 32 39 38 43 43 39 42 46 48 50 56 61 63 64 64 64 64 61 60 60 57 54 52 49 46 44 42 42 41 41 41 43 43 40 37 34 33 34 34 33 33 34 34 35 35 35 37 39 40 40 41 41 41 37 29 22 23 27 30 32 33 34 33 31 30 32 34 39 37 33 31 27
9 11 10 10 14 14 13 13 10 10 7 8 12 13 13 16 16 17 20 21 24 24 30 34 27 33 42 42 46 43 40 45 51 55 56 59 66 74 75 74 73 66 62 60 57 56 54 53 51 49 46 44 44 43 41 42 43 44 41 37 36 36 34 33 32 32 32 33 33 34 34 35 37 39 41 42 43 43 42 37 29 25 26 28 28 28 31 34 33 29 28 33 38 39 37 33 27
10 10 12 13 16 17 15 14 11 10 9 8 11 13 13 15 15 15 17 19 21 22 32 34 28 36 42 43 46 44 46 51 55 60 61 59 62 77 85 81 78 71 63 60 58 57 56 55 54 53 50 48 48 45 43 42 44 44 43 41 40 38 36 34 34 33 32 32 32 32 33 35 37 39 42 43 43 43 45 43 38 33 30 29 28 27 27 29 31 31 27 29 33 36 38 36 30
11 10 12 14 15 17 16 14 11 10 12 12 12 13 13 14 14 15 15 17 17 19 31 36 34 38 40 43 47 46 50 54 57 61 62 60 56 65 82 83 78 75 67 63 63 62 61 59 58 56 54 53 50 47 45 44 44 45 46 45 43 40 39 37 36 34 33 32 31 31 33 34 36 39 41 41 42 44 45 46 44 41 38 35 34 33 31 27 27 28 26 25 26 32 36 36 33
11 11 12 13 14 14 14 12 12 12 15 15 15 15 16 16 15 15 15 16 16 16 23 29 31 34 37 42 47 47 48 55 60 63 60 61 60 64 79 81 79 80 75 71 69 68 66 63 62 61 59 57 53 50 48 47 47 47 47 45 44 42 41 40 39 37 34 33 32 32 34 35 35 38 40 40 41 44 46 46 45 44 42 41 42 42 39 34 29 27 26 23 22 26 32 34 34
11 13 13 14 15 13 13 13 12 13 16 18 17 16 17 16 16 15 15 15 15 14 18 25 27 30 37 40 44 44 45 53 59 62 58 59 67 72 79 79 82 87 84 81 78 73 70 67 67 63 61 58 55 54 51 50 48 48 48 47 46 44 42 42 41 39 38 36 35 35 36 36 34 37 40 42 43 45 46 45 43 41 41 41 44 45 44 41 36 32 28 25 22 22 27 32 34
11 13 13 15 15 13 14 14 13 14 17 18 16 16 17 16 16 15 16 16 16 16 21 27 26 30 39 41 44 43 42 48 54 58 56 57 67 75 79 76 82 86 82 82 80 77 74 72 69 62 60 58 57 56 54 52 50 49 48 48 46 44 43 43 43 44 43 42 40 37 38 38 35 36 40 43 44 44 44 44 43 41 40 38 40 42 44 46 42 38 33 28 25 22 25 29 33
11 12 12 14 13 12 13 13 13 14 17 18 17 17 17 17 17 16 17 18 17 19 24 25 24 29 39 40 43 44 43 46 48 52 54 58 64 71 77 76 81 83 77 75 73 74 75 73 68 62 60 57 57 55 54 53 51 48 47 46 44 42 42 43 46 47 46 45 43 38 38 39 37 37 39 42 43 44 45 43 41 40 40 39 38 39 41 43 44 40 35 32 28 24 25 29 32
12 12 13 13 13 13 13 13 13 14 17 17 16 18 18 17 17 18 18 18 18 17 19 22 23 27 33 34 37 43 45 46 45 48 52 58 60 65 73 76 80 80 75 73 72 72 72 69 64 61 59 56 55 54 54 53 50 47 45 44 43 42 42 43 46 46 47 47 45 41 39 42 40 39 41 44 45 47 46 41 39 39 39 39 39 41 40 40 42 40 33 33 33 28 27 29 32
12 13 14 14 14 14 13 13 13 16 18 18 18 18 19 19 18 19 19 19 18 15 18 22 22 23 29 30 35 44 45 47 47 46 51 56 58 65 72 74 76 78 77 73 72 73 70 66 63 61 59 55 55 54 53 52 49 47 45 44 44 44 44 45 46 46 47 47 47 45 44 45 44 42 44 47 50 51 48 43 43 43 40 41 42 42 42 41 38 34 28 30 34 31 29 32 32
13 14 14 15 15 13 12 12 14 18 18 18 19 18 19 19 19 19 18 19 17 17 24 25 22 25 30 32 37 44 44 46 48 48 52 55 58 64 67 67 70 77 77 70 68 71 69 66 64 61 58 55 54 53 50 48 47 47 45 44 44 45 45 46 45 45 46 46 47 48 47 48 48 47 47 51 54 54 52 50 49 47 42 42 44 45 45 43 35 30 29 29 34 35 32 34 37
12 13 14 14 13 11 11 12 17 20 19 18 19 18 19 18 18 18 16 20 16 19 32 30 28 33 35 36 40 44 44 45 45 49 54 56 58 59 61 67 69 72 73 68 67 70 68 64 61 57 55 54 54 52 49 48 46 46 44 43 44 44 45 46 45 44 45 47 49 51 51 50 51 52 52 55 58 58 57 57 55 51 48 45 45 46 47 43 33 31 35 36 37 39 34 36 42
12 13 14 14 13 12 11 14 19 20 20 20 20 17 18 18 18 18 16 19 15 17 34 35 34 39 38 36 39 40 41 41 43 47 52 55 56 55 62 70 70 71 73 71 71 70 64 59 56 54 53 53 53 52 51 50 48 48 46 44 44 44 46 47 46 46 49 53 53 53 55 54 54 56 57 57 61 61 59 59 58 56 56 52 47 46 47 46 40 36 39 42 43 43 40 43 50
12 12 13 13 13 13 12 15 20 20 20 20 19 15 17 18 17 19 17 17 15 17 32 38 38 40 38 37 38 37 37 41 44 46 50 52 52 53 59 63 62 68 76 76 74 68 60 56 54 52 51 51 51 50 50 49 48 49 48 47 45 45 47 47 47 48 51 56 56 54 55 55 56 58 60 60 61 61 59 58 59 61 62 60 55 50 52 56 55 49 47 49 49 45 45 49 52
12 12 13 13 12 12 13 15 16 17 17 16 16 14 15 17 16 20 18 15 17 19 26 35 39 40 42 43 41 39 39 41 45 47 50 51 51 53 56 60 62 67 74 78 75 67 61 56 53 51 50 49 48 47 47 47 47 48 49 49 47 48 50 51 52 53 55 57 56 56 56 55 55 58 62 63 63 61 59 58 59 61 63 65 61 56 58 62 61 58 55 54 50 47 49 52 48
13 13 13 13 12 12 14 14 13 14 14 13 14 14 14 15 17 18 16 19 23 20 24 35 41 45 50 50 47 46 46 46 47 51 54 56 56 56 58 66 72 69 68 75 76 69 62 58 54 52 50 49 48 46 45 46 46 47 49 49 49 51 53 56 60 59 58 59 59 59 59 58 57 58 62 64 64 62 60 58 59 59 60 64 64 62 64 65 64 62 61 57 49 45 47 49 47
14 14 13 13 12 13 13 14 14 13 13 12 13 13 13 13 15 15 14 22 27 23 28 35 41 49 54 56 56 54 56 56 54 55 57 59 60 60 62 70 76 68 63 73 76 67 60 57 55 53 50 48 45 44 42 43 43 45 46 45 47 51 53 57 61 60 58 59 59 59 58 58 59 60 61 62 62 61 60 61 61 59 59 62 63 64 67 68 68 65 61 56 50 47 46 47 47
14 14 14 13 12 12 13 14 13 13 13 12 12 12 12 11 13 13 15 25 28 28 33 36 41 51 55 57 59 57 59 59 56 58 60 61 62 62 65 67 70 64 60 70 72 62 56 55 53 51 49 45 42 40 38 38 39 40 41 41 43 46 47 48 51 54 55 56 57 56 58 59 59 61 61 63 63 62 61 61 61 59 58 60 60 63 67 67 66 62 58 53 50 52 52 54 55
14 14 14 14 13 12 12 13 13 13 13 12 12 11 11 11 13 12 16 28 33 34 38 38 43 52 57 59 59 57 57 55 53 58 63 65 63 61 61 61 62 60 60 69 67 57 54 50 49 48 44 39 36 35 33 34 35 36 37 37 39 40 40 41 43 48 53 56 58 58 59 57 57 59 59 64 65 64 64 61 58 58 56 56 57 61 63 61 59 57 56 53 49 50 55 58 58
13 13 13 13 13 13 12 13 12 12 13 13 12 11 12 12 13 13 17 29 34 37 42 42 45 54 59 60 60 60 57 55 55 57 62 64 61 58 58 59 62 58 59 71 67 60 56 46 43 41 36 33 30 29 29 30 31 31 33 33 35 37 37 39 39 44 51 56 59 60 59 57 57 59 61 64 64 65 66 62 59 58 56 54 52 53 55 55 56 56 56 56 53 51 54 57 57
13 12 13 13 13 13 12 12 12 12 13 13 12 11 13 13 14 15 21 29 29 36 46 48 49 53 56 58 59 60 59 59 59 59 60 60 59 59 59 62 63 57 60 68 63 58 55 45 39 37 32 29 27 27 27 27 27 28 30 31 33 34 35 39 40 42 49 54 56 57 58 59 58 60 64 65 64 66 66 62 60 57 56 54 48 47 51 52 54 57 57 57 56 54 57 60 60
12 12 12 12 13 12 11 11 11 12 12 12 13 13 13 14 14 15 24 33 30 37 47 45 47 51 53 54 55 58 60 59 61 61 59 59 61 60 62 66 62 58 61 62 56 52 49 41 38 36 31 28 27 27 26 25 26 27 28 29 30 32 34 38 40 43 48 51 54 56 59 61 60 60 63 63 61 65 63 61 57 53 54 52 47 48 51 52 53 56 56 55 54 54 58 62 64
12 11 12 12 12 10 10 11 12 12 12 13 14 14 15 13 14 17 24 32 32 39 45 42 45 51 50 48 49 53 55 55 58 58 56 59 66 63 63 65 60 57 57 52 51 51 46 40 39 36 31 28 28 27 26 25 26 27 27 29 30 30 31 35 39 44 48 50 53 55 58 60 61 60 61 61 62 64 62 57 52 48 50 47 44 48 50 52 55 55 54 54 53 51 54 60 62
13 12 12 11 12 12 11 12 13 14 13 14 14 15 16 14 17 24 27 31 32 34 41 42 46 52 52 49 48 51 53 54 56 57 57 61 70 67 59 60 57 53 50 45 45 46 44 41 39 36 32 30 29 28 27 26 27 27 26 28 30 29 30 33 38 43 47 49 50 53 56 58 57 57 60 59 59 61 57 51 49 47 49 47 46 50 55 60 60 53 52 54 53 51 52 56 59
14 14 14 13 14 15 13 13 14 15 16 15 14 16 17 15 20 27 29 34 33 32 37 39 43 50 53 53 52 53 55 55 55 55 55 56 64 65 56 55 54 50 46 43 42 41 40 38 35 31 29 29 28 28 28 27 27 27 28 28 27 27 28 31 36 42 45 47 48 50 53 53 53 56 58 55 56 60 56 49 49 51 52 54 55 56 63 68 62 55 55 56 56 54 53 55 57
16 17 17 18 17 16 15 15 15 17 20 18 16 17 18 18 25 30 31 36 37 35 38 39 41 45 48 52 53 54 56 55 53 53 52 48 52 56 53 52 51 48 45 42 40 39 37 34 30 25 22 23 22 23 27 30 30 29 29 28 24 23 25 27 32 38 42 45 48 50 51 50 51 57 56 53 56 59 57 52 51 53 52 55 58 57 62 65 62 59 60 60 60 58 56 55 56
21 19 19 22 20 18 19 20 19 20 23 23 20 19 18 22 29 30 29 34 37 37 39 40 41 43 45 48 50 53 56 57 55 54 53 47 47 49 49 50 48 43 43 42 39 37 34 30 26 21 18 18 18 20 24 29 31 28 26 26 25 24 24 25 28 32 38 41 44 46 48 49 51 54 53 52 54 56 58 54 52 56 56 56 57 54 56 59 59 57 56 59 62 61 59 58 58
28 27 24 28 27 23 23 23 21 22 25 26 24 20 19 25 31 32 29 31 37 38 40 42 41 44 46 46 47 50 54 55 55 54 53 51 51 49 48 48 45 41 42 40 37 35 32 27 22 18 18 17 18 19 21 24 26 26 27 27 29 27 25 25 23 25 32 37 40 43 46 49 50 51 52 53 54 56 57 55 58 65 64 59 58 54 52 55 55 52 53 55 57 59 59 60 60
31 36 32 31 31 27 25 24 24 25 26 27 26 21 20 24 29 31 28 28 34 38 41 45 45 46 45 44 46 49 50 52 54 56 58 57 54 51 49 48 44 42 41 36 34 33 31 25 20 19 18 18 19 20 20 23 26 28 30 31 31 29 26 25 23 20 22 26 31 35 40 45 48 50 51 51 52 53 52 53 60 68 66 62 62 58 53 54 55 53 53 55 57 58 57 57 58
33 41 38 31 29 28 26 25 26 28 29 29 28 25 22 24 26 27 27 28 33 36 37 44 49 48 44 43 46 49 51 51 52 57 60 59 57 54 52 49 45 42 40 37 35 33 30 26 21 19 19 19 20 21 23 26 30 31 32 33 33 30 27 25 25 23 21 19 18 21 27 34 39 45 47 45 45 45 44 45 48 55 60 61 62 62 58 57 57 55 53 55 58 57 55 55 57
33 40 41 33 30 30 28 28 28 29 32 31 30 28 24 25 28 29 29 30 36 39 36 39 47 49 45 44 45 48 53 53 52 55 56 56 56 56 53 50 46 42 39 38 36 32 29 26 22 21 20 21 22 25 28 30 31 32 32 33 33 31 28 25 26 27 25 22 20 18 21 24 25 30 32 34 37 37 37 38 37 41 46 48 50 53 56 57 57 59 57 55 57 57 55 56 57
31 36 39 36 32 32 33 33 30 30 33 31 32 31 27 27 29 31 31 30 35 40 39 36 40 46 47 44 42 44 50 50 48 49 51 52 53 53 52 49 45 43 40 37 34 32 31 28 26 25 24 23 25 30 34 35 35 35 32 32 31 30 29 25 23 25 22 20 21 19 19 21 21 20 22 26 31 31 32 33 32 33 35 36 38 41 47 52 53 55 55 53 54 54 54 55 56
28 32 37 36 32 32 36 38 35 34 34 32 33 33 30 28 28 29 32 31 33 37 39 37 36 38 41 43 42 41 46 46 43 44 45 46 49 50 50 49 46 44 42 36 33 33 32 30 29 28 27 26 30 34 37 37 38 38 35 33 32 31 29 21 15 18 16 13 15 17 20 25 25 23 23 26 28 28 29 29 27 27 30 30 31 34 39 43 44 48 49 49 50 51 53 55 56
25 28 33 33 29 30 34 39 42 41 40 38 35 36 35 30 28 29 30 32 33 34 35 36 37 37 37 40 42 41 43 44 42 42 42 42 46 48 49 49 47 46 44 40 38 36 32 30 31 32 30 30 34 37 37 37 39 40 38 36 36 35 29 17 11 14 14 13 15 18 23 28 29 28 27 27 27 27 28 27 26 27 28 27 28 29 32 32 34 40 44 48 52 53 54 55 54
22 25 30 29 25 29 33 38 43 43 43 42 37 40 42 35 28 28 28 29 33 33 32 34 38 39 37 38 41 42 44 45 44 43 44 44 45 47 50 49 48 47 47 46 44 42 38 33 35 38 36 36 38 36 35 36 37 38 38 37 35 33 26 16 12 13 13 14 16 17 20 25 28 29 29 27 26 28 29 28 28 28 28 27 27 26 27 27 29 33 37 43 48 49 53 57 57
21 24 26 25 23 29 34 37 40 41 41 42 39 41 46 40 30 26 26 27 30 32 34 37 38 38 40 41 43 45 45 44 44 44 44 45 45 47 49 48 46 46 48 50 49 48 46 40 40 43 41 40 39 35 33 34 35 36 36 34 31 28 24 18 14 12 13 13 13 14 16 19 22 24 25 26 26 28 29 29 28 28 28 28 27 26 26 27 29 31 33 35 38 39 45 53 55
22 23 23 25 25 29 34 35 37 37 35 39 41 39 40 39 32 28 28 29 33 34 35 39 38 39 45 46 44 44 44 43 43 44 44 43 43 45 47 46 43 43 46 51 52 52 52 48 46 46 45 43 40 36 34 33 34 35 34 34 31 27 24 21 16 12 12 13 12 13 14 15 18 18 20 24 28 29 28 28 27 26 27 28 28 27 26 28 27 28 28 29 29 30 33 39 41
23 24 24 26 25 27 31 31 34 34 31 37 41 35 33 35 31 30 30 30 35 37 37 38 39 42 47 46 43 43 45 47 47 47 48 45 44 45 46 45 43 42 43 46 51 56 57 56 55 52 50 48 43 39 37 37 37 36 35 34 33 29 25 23 20 14 11 12 12 12 12 13 14 14 14 16 20 26 28 27 26 26 25 25 26 26 25 24 22 20 22 23 23 23 25 28 28
26 27 28 27 26 27 30 30 33 36 35 38 37 32 32 35 33 32 33 34 37 39 38 39 40 44 47 43 42 44 46 48 46 45 47 46 44 42 42 41 39 39 42 46 51 54 53 56 61 59 57 56 52 48 46 43 39 38 37 36 34 30 25 24 22 18 13 11 11 12 12 12 12 11 12 11 12 19 25 26 24 23 21 17 17 18 17 15 12 12 15 18 20 21 23 24 24
30 33 32 30 29 29 29 32 34 37 42 40 36 35 38 42 39 35 35 36 40 41 39 41 43 46 49 45 42 43 45 46 46 46 46 45 43 41 38 36 35 35 39 43 47 48 48 52 60 65 65 66 62 56 52 46 42 41 39 36 35 30 26 24 23 20 16 11 10 12 12 12 12 12 12 12 11 13 18 21 20 17 14 12 12 12 11 10 10 9 11 13 16 19 21 20 19
30 36 34 33 35 33 32 36 36 39 45 42 37 39 42 45 42 38 37 37 40 43 40 42 45 46 49 48 45 47 47 46 46 46 47 46 45 43 38 35 35 34 35 38 40 44 47 49 55 62 69 72 67 58 56 54 51 50 46 38 35 31 27 25 23 21 18 13 10 11 12 12 12 12 12 11 10 10 11 13 13 12 11 11 12 12 11 11 11 11 11 11 12 13 15 14 13
26 32 31 31 35 38 42 45 42 41 44 42 41 43 45 46 43 41 41 39 38 41 41 41 45 46 46 48 50 52 51 46 44 44 45 45 43 39 36 34 35 34 35 36 36 40 47 50 49 51 62 72 67 60 60 61 61 63 60 48 37 31 27 26 24 23 21 17 12 12 13 12 11 11 11 11 11 11 10 10 10 10 11 11 11 11 11 11 11 11 11 11 11 11 11 11 11
27 31 31 31 32 37 47 49 45 47 47 45 46 47 49 49 46 44 43 43 42 42 43 42 41 43 44 48 52 52 49 45 43 42 42 41 37 33 32 32 33 33 35 35 35 39 45 47 47 50 62 72 68 61 58 58 59 64 67 60 43 32 28 27 26 24 24 20 15 15 15 13 12 12 11 11 11 12 11 11 11 11 10 11 11 11 10 11 11 11 11 10 11 11 10 11 11
32 34 35 37 36 38 45 46 47 52 51 49 50 52 55 54 54 52 46 46 46 43 45 44 41 44 46 48 48 47 46 44 43 41 38 36 34 35 36 34 32 31 32 35 38 42 42 44 51 57 64 70 67 63 60 56 56 60 66 66 50 34 30 30 27 25 24 21 17 18 18 17 16 15 14 14 13 13 12 12 12 12 12 11 11 11 11 11 12 11 12 11 11 11 11 11 11
34 35 38 44 43 41 45 46 46 47 49 52 53 54 56 55 57 55 47 47 49 46 47 47 47 49 48 46 43 42 44 44 44 41 36 33 34 36 36 35 35 33 33 36 38 42 46 55 67 67 63 65 64 66 68 63 59 60 65 69 60 42 33 32 29 25 26 25 20 21 22 21 21 20 20 19 18 17 16 15 14 14 14 14 14 14 13 13 13 13 12 12 12 13 12 12 12
35 36 40 45 44 42 47 49 47 46 51 55 51 50 51 49 51 51 45 47 49 46 47 48 50 51 47 45 43 42 43 43 42 38 33 32 33 34 33 32 34 35 35 38 41 46 53 61 69 67 64 65 61 62 67 65 62 62 67 72 65 49 38 36 32 28 29 30 26 25 25 24 25 25 25 24 24 23 22 21 21 21 20 20 20 20 19 18 18 18 18 18 18 17 17 17 16
29 34 39 39 39 42 47 51 51 52 55 54 47 47 49 47 49 48 42 45 47 43 44 47 48 47 46 46 45 44 44 41 38 35 33 35 34 34 34 31 31 32 33 37 42 48 50 52 57 58 61 65 60 57 58 58 61 63 68 72 68 55 45 41 39 34 33 37 35 31 30 29 27 28 29 28 28 28 29 28 28 29 29 28 29 28 29 29 28 28 28 27 27 26 25 25 24
22 29 36 36 37 42 44 45 50 54 55 53 48 45 46 47 51 50 46 48 50 45 45 47 46 44 44 47 47 46 44 40 38 36 36 37 36 35 34 31 31 32 32 34 37 40 40 44 52 57 59 60 59 59 58 57 60 63 68 73 71 64 56 49 46 41 38 43 43 40 37 34 31 31 32 32 32 33 34 34 34 35 35 35 36 36 36 36 36 36 35 34 33 33 32 31 31
24 25 30 32 33 37 39 40 44 50 52 53 51 48 49 52 54 53 51 52 53 50 49 47 44 43 45 48 50 48 44 41 40 39 38 37 36 36 34 33 33 32 33 33 34 35 35 38 45 52 56 55 55 57 57 54 55 63 74 77 71 68 65 58 54 50 45 47 50 48 46 43 38 36 38 39 38 37 37 38 38 39 39 39 39 38 39 38 38 38 37 37 37 36 35 34 33
35 34 33 34 37 37 37 36 36 42 50 53 54 54 55 56 53 52 52 52 54 54 53 51 48 46 48 52 54 51 46 43 41 39 39 38 38 38 37 36 35 34 32 31 31 33 34 35 39 43 49 52 53 54 56 53 51 60 74 78 74 75 75 69 62 58 52 52 54 55 53 51 47 46 47 47 46 44 43 43 43 43 43 42 42 41 39 39 38 38 37 37 38 38 38 37 37
37 39 39 43 45 43 45 48 43 42 47 52 58 59 59 58 54 52 52 52 57 59 58 58 53 50 54 57 56 53 49 46 44 40 38 39 40 41 40 40 39 36 33 31 31 32 32 34 38 41 44 49 52 53 55 54 52 56 65 72 76 80 84 81 74 68 60 55 54 56 56 55 54 54 56 56 54 54 53 53 52 51 49 48 47 45 43 41 40 39 38 37 36 36 37 37 38